Regional Weather Roundup
Issued by NWS

Home | Current Version | Previous Version | Graphics & Text | Print | Product List | Glossary On
Versions: 1 2 3 4 5 6 7 8 9 10 11 12 13 14 15 16 17 18 19 20 21 22 23 24 25 26 27 28 29 30 31 32 33 34 35 36 37 38 39 40 41 42 43 44 45 46 47 48 49 50
000
ASUS43 KMKX 231121
RWRWI

WISCONSIN REGIONAL WEATHER ROUNDUP
NATIONAL WEATHER SERVICE MILWAUKEE/SULLIVAN WI
600 AM CDT WED JUL 23 2014

NOTE: "FAIR" INDICATES FEW OR NO CLOUDS BELOW 12,000 FEET WITH NO
SIGNIFICANT WEATHER AND/OR OBSTRUCTIONS TO VISIBILITY.

WIZ001-002-006>008-014>016-023>028-231200-
NORTHWEST WISCONSIN

CITY           SKY/WX    TMP DP  RH WIND       PRES   REMARKS
SUPERIOR ARPT  FOG       50  50 100 CALM      30.23R VSB 1/4
ASHLAND        PTCLDY    52  52 100 CALM      30.22R
HAYWARD        FOG       50  50 100 CALM      30.23R VSB 3/4
SIREN          CLEAR     52  51  95 CALM      30.23R
RICE LAKE      FOG       54  53  95 CALM      30.23R VSB 1/2
LADYSMITH      CLEAR     54  53  95 CALM      30.23R FOG
EAU CLAIRE     CLEAR     57  56  96 CALM      30.20R
MENOMONIE      SUNNY     59  57  94 CALM      30.22R
NEW RICHMOND   CLEAR     55  55  99 CALM      30.23R FOG
OSCEOLA        CLEAR     53  53 100 CALM      30.25R FOG
$$

WIZ003>005-009-010-017-018-231200-
NORTH CENTRAL WISCONSIN

CITY           SKY/WX    TMP DP  RH WIND       PRES   REMARKS
WOODRUFF       CLEAR     49  46  88 CALM      30.22R
RHINELANDER    CLEAR     52  51  97 CALM      30.22R FOG
EAGLE RIVER    FOG       47  47 100 CALM      30.21R VSB<1/4
LAND O LAKES     N/A     47  47  99 CALM      30.22S FOG
PHILLIPS       PTCLDY    51  51 100 CALM      30.22R FOG
TOMAHAWK       FOG       47  46  97 CALM      30.23R VSB<1/4
MEDFORD        FOG       52  52 100 CALM      30.22R VSB 3/4
MERRILL        FOG       48  48 100 CALM      30.21R VSB 1/4
$$

WIZ029-030-035-036-043>047-231200-
CENTRAL WISCONSIN

CITY           SKY/WX    TMP DP  RH WIND       PRES   REMARKS
WAUSAU         CLEAR     57  56  96 NW6       30.19R
MOSINEE        CLEAR     55  55 100 NW5       30.21R
MARSHFIELD     CLEAR     56  54  93 CALM      30.20R
STEVENS POINT  CLEAR     52  51  99 CALM      30.20R
WAUPACA        CLEAR     56  55  94 CALM      30.18R
WAUTOMA        CLEAR     54  53  96 CALM      30.19R
WISC RAPIDS    CLEAR     56  55  97 CALM      30.21R FOG
CAMP DOUGLAS   FOG       48  48 100 W6        30.19R VSB<1/4
$$

WIZ011>013-019>022-031-037>040-048>050-231200-
NORTHEAST WISCONSIN

CITY           SKY/WX    TMP DP  RH WIND       PRES   REMARKS
ANTIGO         CLEAR     49  49 100 CALM      30.21R
STURGEON BAY   CLEAR     59  54  82 N12G17    30.16R
GREEN BAY      CLEAR     58  55  90 N9        30.16R
MANITOWOC      CLEAR     59  55  87 N8        30.15R
APPLETON       PTCLDY    57  55  94 N6        30.17R
CLINTONVILLE   CLEAR     57  54  88 N5        30.18R
OSHKOSH        CLEAR     60  56  86 N7        30.16R
$$

WIZ032>034-041-042-053>061-231200-
SOUTHWEST WISCONSIN

CITY           SKY/WX    TMP DP  RH WIND       PRES   REMARKS
LA CROSSE      CLEAR     61  58  90 N3        30.20R
SPARTA         CLEAR     52  51  95 CALM      30.21R
VIROQUA        FAIR      57  57 100 CALM      30.21R
BOSCOBEL       CLEAR     58  56  93 CALM      30.19R
PRAIRIE DU CHI CLEAR     63  57  81 CALM      30.18R
PLATTEVILLE    FAIR      60  58  93 N5        30.18R
$$

WIZ056-057-062-063-064-067-068-231200-
SOUTH CENTRAL WISCONSIN

CITY           SKY/WX    TMP DP  RH WIND       PRES   REMARKS
BARABOO/DELLS  CLEAR     58  56  90 CALM      30.18R
LONE ROCK      CLEAR     64  58  80 N5        30.18R
WATERTOWN      CLEAR     60  57  91 N5        30.15R
MADISON        CLEAR     60  55  83 N6        30.15S
MIDDLETON      FAIR      60  57  89 CALM      30.16F
MONROE         CLEAR     61  59  94 N8        30.15R
JANESVILLE     PTCLDY    64  59  82 CALM      30.14R
$$

WIZ051-052-058>065-066-070>072-231200-
SOUTHEAST WISCONSIN

CITY           SKY/WX    TMP DP  RH WIND       PRES   REMARKS
MILWAUKEE      CLEAR     61  53  75 N12       30.13R
WAUKESHA       CLEAR     57  54  88 N12       30.15R
MILWAUKEE/TIMM CLEAR     59  52  77 N3        30.15R
RACINE         CLEAR     59  54  83 N15       30.14R
BURLINGTON     CLEAR     57  55  92 N3        30.15R
KENOSHA        CLEAR     60  55  83 N9        30.13R
FOND DU LAC    PTCLDY    60  55  83 NW8       30.16R
SHEBOYGAN      CLEAR     58  54  86 N6        30.14R
WEST BEND      CLEAR     57  52  82 N3        30.16R
JUNEAU         CLEAR     57  54  89 N5        30.17R
$$

LSZ147-162-231200-
LAKE SUPERIOR

STATION/POSITION TIME  TEMP    WIND        PRES    WAVE
                       AIR SEA DIR/SP/G            HT/PER
                 (UTC) (F)     (DEG/KT/KT) (MB)    (FT/S)
W MID LAKE BUOY  1050   51 40   80/  2/  4 1023.1R   1
PORT WING        1040   55     160/  3/  4 1023.4R
SAXON HARBOR     1000          190/  2/  5 1022.4R
$$

LMZ867-665-643>646-231200-
LAKE MICHIGAN

STATION/POSITION TIME  TEMP    WIND        PRES    WAVE
                       AIR SEA DIR/SP/G            HT/PER
                 (UTC) (F)     (DEG/KT/KT) (MB)    (FT/S)
N MID LAKE BUOY  1050   55 53  330/ 14/ 16 1019.2R   2/ 4
NORTHPORT PIER   1000   62     350/ 18/ 21 1020.0R
KEWAUNEE LAKESHO 1100   59     320/  4/  7 1021.3R
SHEBOYGAN LAKESH 1100   62     340/ 11/ 14 1020.6R
PORT WASHINGTON  1000   62     330/  4/  8 1020.3S
ATWATER BUOY     1100   55     340/  8     1021.5R
MILWAUKEE LAKESH 1100   62     350/ 13/ 17   N/A
S MID LAKE BUOY  1050   61 60  350/ 21/ 25 1018.6R   5/ 6
KENOSHA   LAKESH 1100   60     360/ 19/ 22   N/A
$$

TC  - TEMPERATURE IN CELSIUS
VSB - VISIBILITY IN STATUTE MILES
WCI - WIND CHILL INDEX
HX  - HEAT INDEX




USA.gov is the U.S. government's official web portal to all federal, state and local government web resources and services.